• In Uzbekistan
  • List of Countries
  • For 7 days
  • Water Temperature
  • Satellite Maps
  • Weather Map
  • Weather Widgets
  • user-avatar
    Login

    Hourly Weather Klagenfurt

    Today, 18 January, Wednesday

    Time Temperature Precipitation Wind Pressure Humidity
    00:00 -12°C° 0 mm 3 mps 694 mmHg 88%
    01:00 -10°C° 0 mm 2 mps 694 mmHg 90%
    02:00 -10°C° 0 mm 2 mps 694 mmHg 89%
    03:00 -10°C° 0 mm 2 mps 694 mmHg 89%
    04:00 -10°C° 0 mm 2 mps 694 mmHg 88%
    05:00 -10°C° 0 mm 2 mps 694 mmHg 88%
    06:00 -10°C° 0 mm 2 mps 694 mmHg 88%
    07:00 -10°C° 0 mm 2 mps 695 mmHg 87%
    08:00 -9°C° 0 mm 2 mps 695 mmHg 85%
    09:00 -9°C° 0 mm 3 mps 695 mmHg 83%
    10:00 -8°C° 0 mm 3 mps 696 mmHg 81%
    11:00 -7°C° 0 mm 3 mps 696 mmHg 79%
    12:00 -6°C° 0 mm 3 mps 696 mmHg 78%
    13:00 -5°C° 0 mm 3 mps 696 mmHg 77%
    14:00 -6°C° 0 mm 3 mps 696 mmHg 80%
    15:00 -6°C° 0 mm 3 mps 696 mmHg 83%
    16:00 -6°C° 0 mm 2 mps 695 mmHg 87%
    17:00 -7°C° 0 mm 2 mps 695 mmHg 88%
    18:00 -8°C° 0 mm 2 mps 695 mmHg 89%
    19:00 -9°C° 0 mm 2 mps 695 mmHg 91%
    20:00 -9°C° 0 mm 2 mps 696 mmHg 91%
    21:00 -9°C° 0 mm 2 mps 696 mmHg 91%
    22:00 -9°C° 0 mm 2 mps 696 mmHg 90%
    23:00 -10°C° 0 mm 2 mps 696 mmHg 90%

    Tomorrow, 19 January, Thursday

    Time Temperature Precipitation Wind Pressure Humidity
    00:00 -10°C° 0 mm 2 mps 696 mmHg 90%
    01:00 -10°C° 0 mm 2 mps 696 mmHg 90%
    02:00 -10°C° 0 mm 2 mps 696 mmHg 90%
    03:00 -12°C° 0 mm 2 mps 696 mmHg 90%
    04:00 -12°C° 0 mm 2 mps 696 mmHg 90%
    05:00 -12°C° 0 mm 2 mps 696 mmHg 91%
    06:00 -12°C° 0 mm 2 mps 696 mmHg 91%
    07:00 -12°C° 0 mm 2 mps 696 mmHg 91%
    08:00 -10°C° 0 mm 2 mps 697 mmHg 88%
    09:00 -8°C° 0 mm 2 mps 697 mmHg 85%
    10:00 -6°C° 0 mm 2 mps 698 mmHg 82%
    11:00 -6°C° 0 mm 2 mps 698 mmHg 80%
    12:00 -5°C° 0 mm 2 mps 698 mmHg 79%
    13:00 -4°C° 0 mm 2 mps 698 mmHg 77%
    14:00 -4°C° 0 mm 2 mps 698 mmHg 81%
    15:00 -5°C° 0 mm 2 mps 697 mmHg 85%
    16:00 -4°C° 0 mm 1 mps 697 mmHg 88%
    17:00 -7°C° 0 mm 1 mps 697 mmHg 90%
    18:00 -8°C° 0 mm 1 mps 697 mmHg 92%
    19:00 -10°C° 0 mm 1 mps 697 mmHg 94%
    20:00 -10°C° 0 mm 1 mps 697 mmHg 93%
    21:00 -10°C° 0 mm 1 mps 697 mmHg 93%
    22:00 -10°C° 0 mm 1 mps 697 mmHg 93%
    23:00 -11°C° 0 mm 1 mps 697 mmHg 93%

    Day after tomorrow, 20 January, Friday

    Time Temperature Precipitation Wind Pressure Humidity
    00:00 -11°C° 0 mm 1 mps 697 mmHg 93%
    01:00 -11°C° 0 mm 1 mps 697 mmHg 93%
    02:00 -11°C° 0 mm 1 mps 697 mmHg 93%
    03:00 -11°C° 0 mm 1 mps 697 mmHg 93%
    04:00 -12°C° 0 mm 1 mps 696 mmHg 92%
    05:00 -12°C° 0 mm 1 mps 696 mmHg 92%
    06:00 -12°C° 0 mm 1 mps 696 mmHg 92%
    07:00 -12°C° 0 mm 1 mps 696 mmHg 92%
    08:00 -10°C° 0 mm 1 mps 697 mmHg 87%
    09:00 -8°C° 0 mm 1 mps 698 mmHg 83%
    10:00 -6°C° 0 mm 1 mps 698 mmHg 79%
    11:00 -4°C° 0 mm 1 mps 698 mmHg 77%
    12:00 -3°C° 0 mm 1 mps 698 mmHg 76%
    13:00 -1°C° 0 mm 1 mps 698 mmHg 75%
    14:00 -2°C° 0 mm 1 mps 698 mmHg 79%
    15:00 -3°C° 0 mm 1 mps 697 mmHg 84%
    16:00 -4°C° 0 mm 1 mps 697 mmHg 89%
    17:00 -7°C° 0 mm 1 mps 697 mmHg 91%
    18:00 -8°C° 0 mm 1 mps 696 mmHg 93%
    19:00 -10°C° 0 mm 1 mps 696 mmHg 95%
    20:00 -10°C° 0 mm 1 mps 696 mmHg 95%
    21:00 -10°C° 0 mm 1 mps 696 mmHg 95%
    22:00 -10°C° 0 mm 1 mps 696 mmHg 95%
    23:00 -10°C° 0 mm 1 mps 696 mmHg 95%

    21 January, Saturday

    Time Temperature Precipitation Wind Pressure Humidity
    00:00 -11°C° 0 mm 1 mps 696 mmHg 94%
    01:00 -11°C° 0 mm 1 mps 696 mmHg 94%
    02:00 -11°C° 0 mm 1 mps 695 mmHg 94%
    03:00 -11°C° 0 mm 1 mps 695 mmHg 93%
    04:00 -11°C° 0 mm 1 mps 695 mmHg 93%
    05:00 -11°C° 0 mm 1 mps 695 mmHg 93%
    06:00 -11°C° 0 mm 1 mps 695 mmHg 93%
    07:00 -11°C° 0 mm 1 mps 695 mmHg 92%
    08:00 -8°C° 0 mm 1 mps 696 mmHg 88%
    09:00 -6°C° 0 mm 1 mps 697 mmHg 83%
    10:00 -2°C° 0 mm 1 mps 697 mmHg 78%
    11:00 -1°C° 0 mm 1 mps 697 mmHg 77%
    12:00 0°C° 0 mm 1 mps 697 mmHg 76%
    13:00 +1°C° 0 mm 1 mps 697 mmHg 75%
    14:00 0°C° 0 mm 1 mps 697 mmHg 81%
    15:00 -1°C° 0 mm 1 mps 696 mmHg 86%
    16:00 -2°C° 0 mm 1 mps 696 mmHg 91%
    17:00 -4°C° 0 mm 1 mps 696 mmHg 93%
    18:00 -6°C° 0 mm 1 mps 696 mmHg 94%
    19:00 -8°C° 0 mm 1 mps 696 mmHg 96%
    20:00 -8°C° 0 mm 1 mps 696 mmHg 96%
    21:00 -8°C° 0 mm 1 mps 696 mmHg 95%
    22:00 -8°C° 0 mm 1 mps 696 mmHg 95%
    23:00 -9°C° 0 mm 1 mps 696 mmHg 95%

    22 January, Sunday

    Time Temperature Precipitation Wind Pressure Humidity
    00:00 -9°C° 0 mm 1 mps 696 mmHg 95%
    01:00 -9°C° 0 mm 1 mps 696 mmHg 95%
    02:00 -9°C° 0 mm 1 mps 696 mmHg 95%
    03:00 -9°C° 0 mm 1 mps 696 mmHg 95%
    04:00 -9°C° 0 mm 1 mps 696 mmHg 95%
    05:00 -9°C° 0 mm 1 mps 696 mmHg 95%
    06:00 -9°C° 0 mm 1 mps 696 mmHg 95%
    07:00 -9°C° 0 mm 1 mps 696 mmHg 95%
    08:00 -7°C° 0 mm 1 mps 696 mmHg 91%
    09:00 -4°C° 0 mm 1 mps 697 mmHg 88%
    10:00 -2°C° 0 mm 1 mps 698 mmHg 84%
    11:00 -1°C° 0 mm 1 mps 697 mmHg 82%
    12:00 0°C° 0 mm 1 mps 697 mmHg 79%
    13:00 +1°C° 0 mm 1 mps 697 mmHg 77%
    14:00 0°C° 0 mm 1 mps 696 mmHg 81%
    15:00 -1°C° 0 mm 1 mps 696 mmHg 84%
    16:00 -2°C° 0 mm 1 mps 696 mmHg 88%
    17:00 -3°C° 0 mm 1 mps 695 mmHg 89%
    18:00 -6°C° 0 mm 1 mps 695 mmHg 89%
    19:00 -7°C° 0 mm 1 mps 695 mmHg 90%
    20:00 -7°C° 0 mm 1 mps 695 mmHg 88%
    21:00 -7°C° 0 mm 1 mps 695 mmHg 87%
    22:00 -7°C° 0 mm 1 mps 695 mmHg 85%
    23:00 -7°C° 0 mm 1 mps 695 mmHg 84%

    23 January, Monday

    Time Temperature Precipitation Wind Pressure Humidity
    00:00 -7°C° 0 mm 1 mps 694 mmHg 83%
    01:00 -7°C° 0 mm 1 mps 694 mmHg 82%
    02:00 -7°C° 0 mm 1 mps 694 mmHg 81%
    03:00 -7°C° 0 mm 1 mps 693 mmHg 81%
    04:00 -7°C° 0 mm 1 mps 693 mmHg 81%
    05:00 -7°C° 0 mm 1 mps 693 mmHg 82%
    06:00 -8°C° 0 mm 1 mps 693 mmHg 82%
    07:00 -8°C° 0 mm 1 mps 693 mmHg 83%
    08:00 -4°C° 0 mm 1 mps 693 mmHg 79%
    09:00 -2°C° 0 mm 1 mps 694 mmHg 74%
    10:00 +1°C° 0 mm 1 mps 695 mmHg 70%
    11:00 +2°C° 0 mm 1 mps 694 mmHg 71%
    12:00 +3°C° 0 mm 1 mps 694 mmHg 71%
    13:00 +3°C° 0 mm 0 mps 694 mmHg 72%
    14:00 +3°C° 0 mm 1 mps 694 mmHg 76%
    15:00 +1°C° 0 mm 1 mps 693 mmHg 81%
    16:00 0°C° 0 mm 1 mps 693 mmHg 85%
    17:00 -1°C° 0 mm 1 mps 693 mmHg 87%
    18:00 -3°C° 0 mm 1 mps 692 mmHg 88%
    19:00 -4°C° 0 mm 1 mps 692 mmHg 89%
    20:00 -4°C° 0 mm 1 mps 692 mmHg 89%
    21:00 -4°C° 0 mm 1 mps 692 mmHg 89%
    22:00 -4°C° 0 mm 1 mps 693 mmHg 88%
    23:00 -4°C° 0 mm 1 mps 693 mmHg 89%
    Show more